Akron Canton, OH

3:00 AM EDT on April 23, 2017 (GMT -0400)
Akron-Canton Regional

Weather History for KCAK - January, 2014

Change the Weather History Date:

Sunday, January 12, 2014

  Actual Average Record
Temperature  
Mean Temperature 34 °F 26 °F  
Max Temperature 37 °F 33 °F 64 °F (1916)
Min Temperature 30 °F 19 °F -7 °F (1918)
Degree Days  
Heating Degree Days 31 39  
Month to date heating degree days 507 466  
Since 1 July heating degree days 2786 2796  
Cooling Degree Days 0 0  
Month to date cooling degree days 0 0  
Year to date cooling degree days 0 0  
Moisture  
Dew Point 28 °F    
Average Humidity 81    
Maximum Humidity 92    
Minimum Humidity 70    
Precipitation  
Precipitation T in 0.08 in 2.11 in (2017)
Month to date precipitation 1.28 1.04  
Year to date precipitation 1.28 1.04  
Snow  
Snow T in 0.40 in - ()
Month to date snowfall 7.8 4.7  
Since 1 July snowfall 31.0 18.3  
Snow Depth 0.00 in    
Sea Level Pressure  
Sea Level Pressure 29.91 in    
Wind  
Wind Speed 12 mph (SW)    
Max Wind Speed 16 mph    
Max Gust Speed 16 mph    
Visibility 8 miles    
Events Snow    
T = Trace of Precipitation, MM = Missing Value Source: NWS Daily Summary

Daily Weather History Graph

Daily Weather History Graph

Search for Another Location

Airport or City:

Trip Planner

Search our weather history database for the weather conditions in past years. The results will help you decide how hot, cold, wet, or windy it might be!

Date:

Astronomy

Jan. 12, 2014 Rise Set
Actual Time 7:49 AM EST 5:19 PM EST
Civil Twilight 7:18 AM EST 5:49 PM EST
Nautical Twilight 6:44 AM EST 6:23 PM EST
Astronomical Twilight 6:11 AM EST 6:56 PM EST
Moon 2:46 PM EST (1/12) 4:46 AM EST (1/12)
Length of Visible Light 10h 30m
Length of Day
9h 29m
Waxing Gibbous, 89% of the Moon is Illuminated
Jan 12
Waxing Gibbous
Jan 15
Full
Jan 24
Last Quarter
Jan 30
New
Feb 6
First Quarter

Hourly Weather History & Observations

Time (EST) Temp. Windchill Dew Point Humidity Pressure Visibility Wind Dir Wind Speed Gust Speed Precip Events Conditions
12:51 AM 33.1 °F 24.4 °F 28.0 °F 82% 29.70 in 10.0 mi West 11.5 mph - N/A   Overcast
1:51 AM 33.1 °F 24.4 °F 28.0 °F 82% 29.72 in 8.0 mi WSW 11.5 mph - 0.00 in Snow Light Snow
2:37 AM 33.8 °F 25.3 °F 28.4 °F 81% 29.72 in 5.0 mi WSW 11.5 mph - N/A Snow Light Snow
2:51 AM 33.1 °F 24.4 °F 28.0 °F 82% 29.75 in 5.0 mi WSW 11.5 mph - 0.00 in   Light Drizzle
3:51 AM 33.1 °F 24.4 °F 28.0 °F 82% 29.78 in 6.0 mi WSW 11.5 mph - 0.00 in   Light Drizzle
4:51 AM 33.1 °F 25.5 °F 28.0 °F 82% 29.80 in 5.0 mi WSW 9.2 mph - N/A   Light Drizzle
5:51 AM 33.1 °F 24.4 °F 28.0 °F 82% 29.83 in 5.0 mi WSW 11.5 mph - 0.00 in   Light Drizzle
6:51 AM 32.0 °F 23.0 °F 28.0 °F 85% 29.87 in 8.0 mi West 11.5 mph - 0.00 in   Overcast
7:19 AM 32.0 °F 21.2 °F 30.2 °F 93% 29.85 in 7.0 mi WNW 16.1 mph - 0.00 in   Light Freezing Drizzle
7:51 AM 32.0 °F 21.2 °F 28.9 °F 88% 29.91 in 5.0 mi West 16.1 mph - 0.00 in   Light Freezing Drizzle
8:51 AM 32.0 °F 23.0 °F 28.0 °F 85% 29.93 in 5.0 mi WNW 11.5 mph - N/A   Overcast
9:51 AM 32.0 °F 23.0 °F 28.9 °F 88% 29.99 in 5.0 mi West 11.5 mph - N/A   Overcast
10:51 AM 32.0 °F 23.0 °F 28.0 °F 85% 30.01 in 5.0 mi WSW 11.5 mph - N/A Snow Light Snow
11:51 AM 35.1 °F 25.5 °F 27.0 °F 72% 29.99 in 7.0 mi WSW 15.0 mph - N/A   Overcast
12:51 PM 34.0 °F 24.2 °F 27.0 °F 75% 29.99 in 7.0 mi WSW 15.0 mph - N/A   Overcast
1:51 PM 35.1 °F 25.5 °F 27.0 °F 72% 29.99 in 7.0 mi WSW 15.0 mph - N/A   Overcast
2:51 PM 36.0 °F 27.1 °F 27.0 °F 70% 30.00 in 7.0 mi SW 13.8 mph - N/A   Overcast
3:51 PM 34.9 °F 25.7 °F 27.0 °F 73% 30.01 in 10.0 mi SW 13.8 mph - N/A   Mostly Cloudy
4:51 PM 34.7 °F 26.4 °F 27.5 °F 75% 30.00 in 10.0 mi SSW 11.5 mph - N/A   Mostly Cloudy
5:51 PM 32.0 °F 23.0 °F 27.0 °F 82% 30.02 in 10.0 mi SSW 11.5 mph - N/A   Scattered Clouds
6:51 PM 32.7 °F 23.9 °F 27.0 °F 79% 30.02 in 10.0 mi South 11.5 mph - N/A   Partly Cloudy
7:51 PM 30.4 °F 22.9 °F 28.4 °F 92% 30.02 in 10.0 mi South 8.1 mph - N/A   Scattered Clouds
8:51 PM 30.6 °F 23.1 °F 27.9 °F 90% 29.99 in 10.0 mi South 8.1 mph - N/A   Scattered Clouds
9:51 PM 32.5 °F 24.2 °F 29.3 °F 88% 29.99 in 10.0 mi South 10.4 mph - N/A   Mostly Cloudy
10:51 PM 33.1 °F 23.4 °F 29.3 °F 86% 29.96 in 10.0 mi South 13.8 mph - N/A   Scattered Clouds
11:51 PM 35.1 °F 25.9 °F 29.3 °F 80% 29.94 in 10.0 mi South 13.8 mph - N/A   Scattered Clouds